Haines, AK

7:04 PM AKDT on October 17, 2017 (GMT -0800)
Haines

Weather History for PAHN - February, 2012

Change the Weather History Date:

Monday, February 6, 2012

  Actual Average Record
Temperature  
Mean Temperature 32 °F -  
Max Temperature 36 °F 29 °F 52 °F (1982)
Min Temperature 28 °F 22 °F -2 °F (2008)
Degree Days  
Heating Degree Days 33    
Moisture  
Dew Point 26 °F    
Average Humidity 80    
Maximum Humidity 89    
Minimum Humidity 70    
Precipitation  
Precipitation 0.00 in - - ()
Sea Level Pressure  
Sea Level Pressure 30.16 in    
Wind  
Wind Speed 11 mph (WNW)    
Max Wind Speed 16 mph    
Max Gust Speed -    
Visibility 10 miles    
Events      
Averages and records for this station are not official NWS values.
T = Trace of Precipitation, MM = Missing Value Source: NWS Daily Summary

Daily Weather History Graph

Daily Weather History Graph

Search for Another Location

Airport or City:

Trip Planner

Search our weather history database for the weather conditions in past years. The results will help you decide how hot, cold, wet, or windy it might be!

Date:

Astronomy

Feb. 06, 2012 Rise Set
Actual Time 8:00 AM AKST 4:32 PM AKST
Civil Twilight 7:16 AM AKST 5:17 PM AKST
Nautical Twilight 6:27 AM AKST 6:05 PM AKST
Astronomical Twilight 5:40 AM AKST 6:53 PM AKST
Moon 3:43 PM AKST (2/6) 7:03 AM AKST (2/6)
Length of Visible Light 10h 01m
Length of Day
8h 31m
Waxing Gibbous, 99% of the Moon is Illuminated
Feb 6
Waxing Gibbous
Feb 7
Full
Feb 14
Last Quarter
Feb 21
New
Feb 29
First Quarter

Hourly Weather History & Observations

Time (AKST) Temp. Windchill Dew Point Humidity Pressure Visibility Wind Dir Wind Speed Gust Speed Precip Events Conditions
12:54 AM 30.9 °F 19.8 °F 24.1 °F 76% 30.25 in 10.0 mi WNW 16.1 mph - N/A   Overcast
1:54 AM 32.0 °F 22.5 °F 24.1 °F 73% 30.23 in 10.0 mi WNW 12.7 mph - N/A   Overcast
2:54 AM 30.0 °F 19.5 °F 24.1 °F 79% 30.22 in 10.0 mi WNW 13.8 mph - N/A   Overcast
3:54 AM 30.9 °F 21.7 °F 24.1 °F 76% 30.21 in 10.0 mi WNW 11.5 mph - N/A   Overcast
4:54 AM 30.0 °F 21.1 °F 25.0 °F 82% 30.20 in 10.0 mi WNW 10.4 mph - N/A   Mostly Cloudy
5:54 AM 30.0 °F 23.2 °F 25.0 °F 82% 30.19 in 10.0 mi WNW 6.9 mph - N/A   Mostly Cloudy
6:54 AM 28.9 °F 25.2 °F 26.1 °F 89% 30.18 in 10.0 mi NW 3.5 mph - N/A   Overcast
7:54 AM 30.0 °F 24.1 °F 25.0 °F 82% 30.19 in 10.0 mi WNW 5.8 mph - N/A   Overcast
8:54 AM 30.9 °F 24.3 °F 26.1 °F 82% 30.19 in 10.0 mi WNW 6.9 mph - N/A   Overcast
9:54 AM 32.0 °F - 26.1 °F 79% 30.19 in 6.0 mi Calm Calm - N/A   Haze
10:54 AM 33.1 °F 30.0 °F 28.0 °F 82% 30.19 in 10.0 mi West 3.5 mph - N/A   Partly Cloudy
11:54 AM 33.1 °F 26.1 °F 27.0 °F 78% 30.19 in 10.0 mi West 8.1 mph - N/A   Overcast
12:54 PM 34.0 °F 26.6 °F 27.0 °F 75% 30.18 in 10.0 mi WNW 9.2 mph - N/A   Mostly Cloudy
1:54 PM 36.0 °F 29.0 °F 27.0 °F 70% 30.16 in 10.0 mi WNW 9.2 mph - N/A   Partly Cloudy
2:54 PM 35.1 °F 27.4 °F 27.0 °F 72% 30.15 in 10.0 mi WNW 10.4 mph - N/A   Scattered Clouds
3:54 PM 35.1 °F 27.4 °F 27.0 °F 72% 30.14 in 10.0 mi WNW 10.4 mph - N/A   Clear
4:54 PM 33.1 °F 24.9 °F 28.0 °F 82% 30.13 in 10.0 mi WNW 10.4 mph - N/A   Mostly Cloudy
5:54 PM 32.0 °F 24.8 °F 28.0 °F 85% 30.12 in 10.0 mi WNW 8.1 mph - N/A   Mostly Cloudy
6:54 PM 33.1 °F 24.9 °F 28.0 °F 82% 30.11 in 10.0 mi WNW 10.4 mph - N/A   Overcast
7:54 PM 30.9 °F 21.2 °F 28.0 °F 89% 30.11 in 10.0 mi WNW 12.7 mph - N/A   Overcast
8:54 PM 32.0 °F 23.6 °F 28.0 °F 85% 30.10 in 10.0 mi WNW 10.4 mph - N/A   Overcast
9:54 PM 30.9 °F 20.7 °F 27.0 °F 85% 30.08 in 10.0 mi WNW 13.8 mph - N/A   Overcast
10:54 PM 30.9 °F 20.7 °F 27.0 °F 85% 30.06 in 10.0 mi WNW 13.8 mph - N/A   Overcast
11:54 PM 30.0 °F 19.5 °F 27.0 °F 88% 30.05 in 10.0 mi WNW 13.8 mph - N/A   Overcast